CW1459 Weather Reports


time (UTC)temp
C
wind
direction
speed
KPH
gust
KPH
rain 1hr
cm
rain 24hr
cm
rain mn
cm
humidity
%
barometer
mb
20260509211319 21 30 3.2 8.0 0.00 0.08 0.08 53 1006.9
20260509210324 21 23 3.2 8.0 0.00 0.08 0.08 53 1007.0
20260509205328 21 5 3.2 8.0 0.00 0.08 0.08 54 1007.0
20260509204330 20 103 6.4 11.3 0.03 0.08 0.08 53 1007.3
20260509203323 20 113 1.6 4.8 0.03 0.08 0.08 58 1007.4
20260509202319 19 110 4.8 6.4 0.03 0.08 0.08 57 1007.4
20260509201322 19 108 3.2 8.0 0.03 0.08 0.08 56 1007.3
20260509200327 19 125 3.2 6.4 0.03 0.08 0.08 56 1007.4
20260509195326 19 163 6.4 11.3 0.03 0.08 0.08 55 1007.4
20260509194336 19 163 3.2 12.9 0.00 0.05 0.05 56 1007.5
20260509193338 20 67 8.0 12.9 0.00 0.05 0.05 55 1007.5
20260509192329 20 162 4.8 12.9 0.00 0.05 0.05 55 1007.4
20260509191330 20 196 6.4 17.7 0.00 0.05 0.05 53 1007.5
20260509190314 21 107 6.4 19.3 0.00 0.05 0.05 52 1007.4
20260509185339 20 28 3.2 16.1 0.00 0.05 0.05 53 1007.5
20260509184359 20 172 6.4 14.5 0.00 0.05 0.05 55 1007.6
20260509183338 20 156 3.2 16.1 0.00 0.05 0.05 57 1007.6
20260509182319 20 184 3.2 14.5 0.00 0.05 0.05 56 1007.9
20260509181323 20 192 1.6 12.9 0.00 0.05 0.05 62 1008.0
20260509180334 18 114 1.6 6.4 0.00 0.05 0.05 66 1008.2
20260509175353 18 332 4.8 8.0 0.00 0.05 0.05 64 1008.5
20260509174354 18 334 1.6 8.0 0.00 0.05 0.05 65 1008.8
20260509173337 18 117 3.2 6.4 0.00 0.05 0.05 67 1009.0
20260509172347 17 300 3.2 8.0 0.00 0.05 0.05 69 1009.2
20260509171355 16 305 3.2 4.8 0.00 0.05 0.05 71 1009.4
20260509170358 16 302 1.6 4.8 0.00 0.05 0.05 71 1009.5
20260509165318 15 335 1.6 8.0 0.00 0.05 0.05 74 1009.4
20260509164320 15 338 4.8 8.0 0.00 0.05 0.05 73 1009.4
20260509163319 16 345 3.2 6.4 0.00 0.05 0.05 74 1009.0
20260509162336 16 339 3.2 6.4 0.00 0.05 0.05 73 1009.2
20260509161333 15 340 1.6 4.8 0.00 0.05 0.05 74 1009.5
20260509160337 15 346 1.6 3.2 0.00 0.05 0.05 75 1009.5
20260509155315 15 84 1.6 9.7 0.00 0.05 0.05 72 1009.5
20260509154318 15 104 1.6 8.0 0.00 0.05 0.05 74 1009.7
20260509153351 15 351 3.2 6.4 0.00 0.05 0.05 73 1009.6
20260509152333 16 12 3.2 8.0 0.00 0.05 0.05 75 1009.6
20260509151335 16 328 6.4 12.9 0.00 0.05 0.05 76 1009.7
20260509150335 15 50 1.6 6.4 0.00 0.05 0.05 77 1009.7
20260509145338 15 25 1.6 6.4 0.00 0.05 0.05 85 1009.9
20260509144330 13 346 3.2 8.0 0.00 0.05 0.05 87 1009.7
20260509143315 13 53 3.2 6.4 0.00 0.05 0.05 88 1009.6
20260509142326 13 11 3.2 4.8 0.00 0.05 0.05 88 1009.7
20260509141333 13 360 3.2 6.4 0.00 0.05 0.05 89 1009.4
20260509140359 12 346 1.6 4.8 0.00 0.05 0.05 88 1009.4
20260509135319 12 79 0.0 1.6 0.03 0.05 0.05 88 1009.5
20260509134320 12 96 0.0 1.6 0.05 0.05 0.05 88 1009.7
20260509133333 12 96 0.0 3.2 0.05 0.05 0.05 87 1009.8
20260509132312 12 87 0.0 3.2 0.05 0.05 0.05 86 1009.6
20260509131335 12 78 0.0 3.2 0.05 0.05 0.05 85 1009.6
20260509130334 12 71 1.6 4.8 0.05 0.05 0.05 84 1009.6
20260509125313 12 9 1.6 4.8 0.03 0.03 0.03 83 1009.5
20260509124340 12 360 1.6 3.2 0.00 0.00 0.00 81 1009.6
20260509123334 13 40 1.6 3.2 0.00 0.00 0.00 78 1009.6
20260509122326 13 19 1.6 4.8 0.00 0.00 0.00 76 1009.7
20260509121313 13 84 1.6 3.2 0.00 0.00 0.00 75 1009.9
20260509120336 13 84 1.6 4.8 0.00 0.00 0.00 76 1009.8
20260509115312 12 49 3.2 8.0 0.00 0.00 0.00 78 1009.6
20260509114321 12 31 1.6 6.4 0.00 0.00 0.00 77 1009.6
20260509113333 13 11 1.6 4.8 0.00 0.00 0.00 77 1009.5
20260509112323 13 360 1.6 4.8 0.00 0.00 0.00 74 1009.5
20260509111336 13 118 0.0 3.2 0.00 0.00 0.00 73 1009.5
20260509110333 13 118 1.6 4.8 0.00 0.00 0.00 70 1009.5
20260509105338 13 311 0.0 4.8 0.00 0.00 0.00 67 1009.5
20260509104313 13 290 3.2 4.8 0.00 0.00 0.00 67 1009.3
20260509103318 13 157 1.6 3.2 0.00 0.00 0.00 63 1009.0
20260509102338 13 298 1.6 4.8 0.00 0.00 0.00 64 1008.9
20260509101317 13 301 3.2 9.7 0.00 0.00 0.00 59 1008.7
20260509100313 13 160 6.4 9.7 0.00 0.00 0.00 60 1008.6
20260509095312 13 157 1.6 4.8 0.00 0.00 0.00 59 1008.7
20260509094315 13 184 3.2 8.0 0.00 0.00 0.00 59 1008.7
20260509093335 13 135 4.8 11.3 0.00 0.00 0.00 62 1008.7
20260509092314 12 242 0.0 3.2 0.00 0.00 0.00 66 1008.7
20260509091314 13 242 0.0 1.6 0.00 0.00 0.00 65 1008.7
20260509090335 13 242 0.0 1.6 0.00 0.00 0.00 63 1008.7
20260509085317 13 242 1.6 3.2 0.00 0.00 0.00 61 1008.8
20260509084311 13 242 0.0 1.6 0.00 0.00 0.00 60 1008.9
20260509083338 14 242 0.0 3.2 0.00 0.00 0.00 57 1008.8
20260509082353 14 222 1.6 9.7 0.00 0.00 0.00 56 1008.9
20260509081336 14 206 3.2 4.8 0.00 0.00 0.00 55 1008.9
20260509080341 15 193 1.6 8.0 0.00 0.00 0.00 55 1009.0
20260509075319 15 201 6.4 11.3 0.00 0.00 0.00 53 1008.9
20260509074333 15 209 4.8 8.0 0.00 0.00 0.00 53 1008.9
20260509073319 15 218 1.6 6.4 0.00 0.00 0.00 54 1009.1
20260509072319 15 186 3.2 14.5 0.00 0.00 0.00 52 1008.9
20260509071318 15 153 3.2 12.9 0.00 0.00 0.00 53 1008.9
20260509070318 15 159 6.4 12.9 0.00 0.00 0.00 53 1008.9
20260509065316 15 143 6.4 11.3 0.00 0.00 0.00 52 1008.9
20260509064318 15 136 4.8 9.7 0.00 0.00 0.00 53 1009.0
20260509063319 15 161 6.4 12.9 0.00 0.00 0.00 53 1009.0
20260509062322 14 180 4.8 9.7 0.00 0.00 0.00 55 1009.2
20260509061340 14 165 3.2 6.4 0.00 0.00 0.00 55 1009.3
20260509060342 15 228 1.6 3.2 0.00 0.00 0.00 52 1009.4
20260509055340 15 225 3.2 9.7 0.00 0.00 0.00 50 1009.3
20260509054316 16 167 3.2 11.3 0.00 0.00 0.00 49 1009.3
20260509053316 16 194 6.4 12.9 0.00 0.00 0.00 49 1009.2
20260509052316 16 186 4.8 12.9 0.00 0.00 0.00 49 1009.2
20260509051357 16 165 6.4 16.1 0.00 0.00 0.00 50 1009.3
20260509050350 15 152 8.0 19.3 0.00 0.00 0.00 53 1009.2
20260509045339 13 149 9.7 14.5 0.00 0.00 0.00 57 1009.2
20260509044340 13 199 1.6 1.6 0.00 0.00 0.00 59 1009.5
20260509043402 14 199 0.0 1.6 0.00 0.00 0.00 56 1009.6
20260509042315 15 199 0.0 1.6 0.00 0.00 0.00 54 1009.7
20260509041338 15 199 0.0 3.2 0.00 0.00 0.00 52 1009.7
20260509040329 15 172 3.2 9.7 0.00 0.00 0.00 51 1009.6
20260509035339 15 128 4.8 9.7 0.00 0.00 0.00 51 1009.8
20260509034340 15 150 3.2 11.3 0.00 0.00 0.00 50 1009.9
20260509033339 15 161 6.4 11.3 0.00 0.00 0.00 49 1009.8
20260509032315 15 145 6.4 11.3 0.00 0.00 0.00 48 1009.8
20260509031316 16 129 4.8 12.9 0.00 0.00 0.00 47 1009.9
20260509030316 16 150 6.4 20.9 0.00 0.00 0.00 47 1009.8
20260509025316 16 140 8.0 14.5 0.00 0.00 0.00 48 1009.8
20260509024314 15 120 6.4 16.1 0.00 0.00 0.00 50 1010.0
20260509023317 14 148 4.8 9.7 0.00 0.00 0.00 55 1010.1
20260509022340 15 252 1.6 4.8 0.00 0.00 0.00 55 1010.3
20260509021315 16 221 1.6 9.7 0.00 0.00 0.00 52 1010.3
20260509020330 16 105 4.8 12.9 0.00 0.00 0.00 47 1010.3
20260509015338 16 126 6.4 11.3 0.00 0.00 0.00 47 1010.1
20260509014352 16 161 3.2 8.0 0.00 0.00 0.00 49 1010.0
20260509013335 15 143 4.8 11.3 0.00 0.00 0.00 51 1010.0
20260509012319 15 142 1.6 4.8 0.00 0.00 0.00 56 1009.9
20260509011349 16 117 1.6 3.2 0.00 0.00 0.00 52 1010.0
20260509010338 16 110 3.2 6.4 0.00 0.00 0.00 51 1010.1
20260509005321 15 126 4.8 11.3 0.00 0.00 0.00 50 1010.1
20260509004322 15 106 3.2 6.4 0.00 0.00 0.00 54 1010.0
20260509003336 15 114 1.6 4.8 0.00 0.00 0.00 55 1009.9
20260509002314 15 122 1.6 4.8 0.00 0.00 0.00 56 1009.9
20260509001316 16 133 1.6 4.8 0.00 0.00 0.00 55 1009.7
20260509000359 16 133 3.2 4.8 0.00 0.00 0.00 50 1009.7
20260508235334 17 351 1.6 1.6 0.00 0.00 0.00 49 1009.5
20260508234338 18 351 0.0 3.2 0.00 0.00 0.00 45 1009.5
20260508233314 18 360 3.2 4.8 0.00 0.00 0.00 42 1009.5
20260508232318 19 351 4.8 9.7 0.00 0.00 0.00 41 1009.5
20260508231315 19 351 3.2 8.0 0.00 0.00 0.00 42 1009.5
20260508230339 19 302 4.8 8.0 0.00 0.00 0.00 40 1009.5
20260508225359 18 300 1.6 3.2 0.00 0.00 0.00 48 1009.5
20260508224338 18 301 1.6 8.0 0.00 0.00 0.00 42 1009.5
20260508223335 18 323 4.8 9.7 0.00 0.00 0.00 42 1009.6
20260508222337 18 331 3.2 9.7 0.00 0.00 0.00 42 1009.5
20260508221335 18 307 6.4 14.5 0.00 0.00 0.00 41 1009.6
20260508220339 18 292 6.4 16.1 0.00 0.00 0.00 40 1009.7
20260508215316 18 289 4.8 16.1 0.00 0.00 0.00 41 1009.6
20260508214334 18 289 6.4 14.5 0.00 0.00 0.00 39 1009.6
20260508213358 18 330 6.4 16.1 0.00 0.00 0.00 39 1009.7
20260508212350 18 310 6.4 24.1 0.00 0.00 0.00 38 1009.7